Regional Weather Roundup
Issued by NWS

Home | Current Version | Previous Version | Text Only | Print | Product List | Glossary Off
Versions: 1 2 3 4 5 6 7 8 9 10 11 12 13 14 15 16 17 18 19 20 21 22 23 24 25 26 27 28 29 30 31 32 33 34 35 36 37 38 39 40 41 42 43 44 45 46 47 48 49 50

000
ASUS43 KMKX 302221
RWRWI

WISCONSIN REGIONAL WEATHER ROUNDUP
NATIONAL WEATHER SERVICE MILWAUKEE/SULLIVAN WI
500 PM CDT SAT AUG 30 2014

NOTE: "FAIR" INDICATES FEW OR NO CLOUDS BELOW 12,000 FEET WITH NO
SIGNIFICANT WEATHER AND/OR OBSTRUCTIONS TO VISIBILITY.

WIZ001-002-006>008-014>016-023>028-302300-
NORTHWEST WISCONSIN

CITY           SKY/WX    TMP DP  RH WIND       PRES   REMARKS
SUPERIOR ARPT  PTSUNNY   67  61  83 NE8       29.87S
ASHLAND        CLOUDY    62  59  90 E7        29.90R
HAYWARD        CLOUDY    66  59  78 NE6       29.89R
SIREN          MOSUNNY   70  60  71 E3        29.88S
RICE LAKE      CLOUDY    66  59  77 CALM      29.89S
LADYSMITH      CLOUDY    67  60  76 N7        29.89R
EAU CLAIRE     CLOUDY    68  63  84 N7        29.86R
MENOMONIE      CLOUDY    68  62  82 NW8       29.87S
NEW RICHMOND   CLOUDY    69  59  71 E5        29.88R
OSCEOLA        PTSUNNY   71  63  74 CALM      29.89R
$$

WIZ003>005-009-010-017-018-302300-
NORTH CENTRAL WISCONSIN

CITY           SKY/WX    TMP DP  RH WIND       PRES   REMARKS
WOODRUFF       CLOUDY    62  59  90 N7        29.87R
RHINELANDER    CLOUDY    62  59  90 NW8       29.86R
EAGLE RIVER    CLOUDY    61  59  94 N7        29.85R
LAND O LAKES   CLOUDY    59  59  99 N7        29.87R FOG
PHILLIPS       CLOUDY    63  58  83 N8        29.87R
TOMAHAWK       CLOUDY    62  58  88 N5        29.86R
MEDFORD        CLOUDY    64  61  89 W7        29.86R
MERRILL        CLOUDY    65  62  89 N8        29.84R
$$

WIZ029-030-035-036-043>047-302300-
CENTRAL WISCONSIN

CITY           SKY/WX    TMP DP  RH WIND       PRES   REMARKS
WAUSAU         CLOUDY    69  61  75 NW12      29.82R
MOSINEE        CLOUDY    70  64  83 NW12      29.84R
MARSHFIELD     PTSUNNY   71  64  78 NW10      29.84R
STEVENS POINT  PTSUNNY   71  65  83 NW8       29.82R
WAUPACA        PTSUNNY   76  69  80 W5        29.79S
WAUTOMA        LGT RAIN  79  68  69 W7        29.80S HX  81
WISC RAPIDS    MOSUNNY   74  65  73 NW7       29.83R
CAMP DOUGLAS   MOSUNNY   78  69  73 W15G21    29.82R HX  80
$$

WIZ011>013-019>022-031-037>040-048>050-302300-
NORTHEAST WISCONSIN

CITY           SKY/WX    TMP DP  RH WIND       PRES   REMARKS
ANTIGO         CLOUDY    65  62  91 N8        29.83R
STURGEON BAY   MOSUNNY   72  64  78 NW8       29.76S
GREEN BAY      PTSUNNY   73  67  81 NW16G25   29.76S
MANITOWOC      MOSUNNY   76  67  73 W8        29.76S
APPLETON       PTSUNNY   70  64  83 NW8       29.79R
CLINTONVILLE   DRIZZLE   70  66  88 NW7       29.78S
OSHKOSH        CLOUDY    73  65  75 NW15G23   29.79R
$$

WIZ032>034-041-042-053>061-302300-
SOUTHWEST WISCONSIN

CITY           SKY/WX    TMP DP  RH WIND       PRES   REMARKS
LA CROSSE      PTSUNNY   78  66  66 N10       29.83S HX  80
SPARTA         CLOUDY    73  64  71 W9        29.85R
VIROQUA        MOCLDY    75  65  71 NW6       29.85S
BOSCOBEL       MOSUNNY   80  65  59 W6        29.83R HX  82
PRAIRIE DU CHI SUNNY     81  63  54 W7        29.82S HX  82
PLATTEVILLE    FAIR      78  68  72 CALM      29.86R HX  80
$$

WIZ056-057-062-063-064-067-068-302300-
SOUTH CENTRAL WISCONSIN

CITY           SKY/WX    TMP DP  RH WIND       PRES   REMARKS
BARABOO/DELLS  MOSUNNY   80  63  55 W10       29.82R HX  81
LONE ROCK      PTSUNNY   84  68  58 NW10      29.82S HX  87
WATERTOWN      MOSUNNY   77  67  70 W13G18    29.81S
MADISON        MOSUNNY   80  67  64 W7        29.82R HX  82
MIDDLETON      MOCLDY    81  65  58 W10       29.83S HX  83
MONROE         MOSUNNY   79  66  65 W15G21    29.84S HX  81
JANESVILLE     PTSUNNY   82  64  54 SW14G20   29.83R HX  84
$$

WIZ051-052-058>065-066-070>072-302300-
SOUTHEAST WISCONSIN

CITY           SKY/WX    TMP DP  RH WIND       PRES   REMARKS
MILWAUKEE      MOSUNNY   77  68  73 SW13G24   29.81R
WAUKESHA       PTSUNNY   70  66  88 W8        29.83R
MILWAUKEE/TIMM CLOUDY    73  66  78 W13G20    29.82R
RACINE         MOSUNNY   77  69  76 W10       29.83R
BURLINGTON     MOSUNNY   76  67  72 SW15      29.82S
KENOSHA        MOSUNNY   79  68  69 W18G28    29.82S HX  81
FOND DU LAC    PTSUNNY   74  68  81 MISG      29.80R
SHEBOYGAN      MOSUNNY   76  66  71 W10       29.78R
WEST BEND      CLOUDY    73  64  73 W10       29.80S
JUNEAU         PTSUNNY   75  67  75 W8G17     29.82S
$$

LSZ147-162-302300-
LAKE SUPERIOR

STATION/POSITION TIME  TEMP    WIND        PRES    WAVE
                       AIR SEA DIR/SP/G            HT/PER
                 (UTC) (F)     (DEG/KT/KT) (MB)    (FT/S)
W MID LAKE BUOY  2150   59 58  340/  2/  4 1011.7R   1/ 3
DEVILS ISLAND    2200   61      80/  6/  7 1012.2R
PORT WING        2140   67      70/  6/  8 1012.2R
SAXON HARBOR     2100   62      40/ 10/ 11 1011.9S
$$

LMZ867-665-643>646-302300-
LAKE MICHIGAN

STATION/POSITION TIME  TEMP    WIND        PRES    WAVE
                       AIR SEA DIR/SP/G            HT/PER
                 (UTC) (F)     (DEG/KT/KT) (MB)    (FT/S)
N MID LAKE BUOY  2150   67 65  220/ 14/ 16 1005.6F   4/ 6
NORTHPORT PIER   2140   67     320/ 17/ 22 1006.8R
KEWAUNEE LAKESHO 2100   77     290/  6/ 13 1006.4S
SHEBOYGAN LAKESH 2200   75 54  240/  9/ 11 1008.1R
ATWATER BUOY     2200   70     260/ 14/ 16 1010.4R
MILWAUKEE LAKESH 2200   77     270/ 13/ 21   N/A
S MID LAKE BUOY  2150   73 69  240/ 12/ 14 1009.4R   2/ 5
KENOSHA   LAKESH 2200   80     260/ 16/ 23 1009.1S
$$

TC  - TEMPERATURE IN CELSIUS
VSB - VISIBILITY IN STATUTE MILES
WCI - WIND CHILL INDEX
HX  - HEAT INDEX



USA.gov is the U.S. government's official web portal to all federal, state and local government web resources and services.